Flag for U.S.A. Weather past 2 weeks in Allentown, Pennsylvania, U.S.A.

Now
48 °F

Mostly cloudy.


Feels Like: 43 °F
Forecast: 42 / 55 °F
Wind: 12 mph from West

Location: Lehigh Valley International Airport


UV Index: 5 (Moderate)

Visibility: 10 mi


Pressure: 29.59 "Hg

Humidity: 56%

Dew point: 33 °F

Location of AllentownLocation

Historic Weather in Allentown

°F

Allentown temperature yesterday

Maximum temperature yesterday: 69 °F (at 12:51 PM)
Minimum temperature yesterday: 43 °F (at 5:51 AM)
Average temperature yesterday: 55 °F

Past Weeks' High & Low Weather Summary

 TemperatureHumidityPressure
High81 °F (Apr 13, 2:51 PM)100% (Apr 8, 7:04 AM)30.71 "Hg (Apr 8, 7:04 AM)
Low27 °F (Apr 16, 5:51 AM)16% (Apr 21, 1:51 PM)29.45 "Hg (Apr 8, 9:03 AM)
Average53 °F56%30.07 "Hg
* Reported Apr 8 2:58 AM — Apr 23 2:51 AM, Allentown, Weather by CustomWeather, © 2014

Note: Actual official high and low records may vary slightly from our data, if they occured in-between our weather recording intervals... More about our weather records

Advertising

Historic Weather Conditions — Data for Previous 24 hours

 ConditionsComfort  
Time TempWeatherWind HumidityBarometerVisibility
2:51 AM
Apr 23
48 °FMostly cloudy.12 mph56%29.59 "Hg10 mi
1:51 AM50 °FPassing clouds.16 mph61%29.59 "Hg10 mi
12:51 AM54 °FClear.10 mph62%29.57 "Hg10 mi
11:51 PM
Apr 22
56 °FClear.14 mph70%29.57 "Hg10 mi
10:51 PM54 °FClear.8 mph77%29.56 "Hg10 mi
9:51 PM50 °FClear.6 mph83%29.56 "Hg10 mi
8:51 PM56 °FPassing clouds.6 mph75%29.56 "Hg10 mi
7:51 PM58 °FOvercast.5 mph67%29.55 "Hg10 mi
6:51 PM62 °FMostly cloudy.10 mph70%29.58 "Hg7 mi
5:51 PM63 °FPartly sunny.10 mph73%29.55 "Hg7 mi
4:51 PM60 °FLight rain. Overcast.8 mph78%29.57 "Hg6 mi
3:51 PM61 °FMostly cloudy.9 mph70%29.59 "Hg8 mi
2:51 PM63 °FLight rain. Overcast.14 mph58%29.60 "Hg9 mi
1:51 PM67 °FLight rain. Overcast.9 mph47%29.61 "Hg10 mi
12:51 PM69 °FLight rain. Broken clouds.9 mph39%29.61 "Hg10 mi
11:51 AM65 °FSunny.5 mph49%29.64 "Hg10 mi
10:51 AM63 °FSunny.7 mph52%29.67 "Hg3 mi
9:51 AM59 °FSunny.6 mph60%29.68 "Hg10 mi
8:51 AM56 °FSunny.No wind65%29.71 "Hg10 mi
7:51 AM50 °FSunny.No wind71%29.73 "Hg10 mi
6:51 AM46 °FClear.No wind77%29.75 "Hg10 mi
5:51 AM43 °FClear.5 mph71%29.76 "Hg10 mi
4:51 AM45 °FClear.No wind65%29.78 "Hg10 mi
Weather by CustomWeather, © 2014

See weather overview